| time (UTC) | temp F | wind direction | speed MPH | gust MPH | rain 1hr in | rain 24hr in | rain mn in | humidity % | barometer mb |
| 20260505170520 | 78 | 203 | 6.0 | 12.0 | 0.00 | 0.00 | 0.00 | 43 | 1007.0 |
| 20260505165520 | 79 | 225 | 7.0 | 16.0 | 0.00 | 0.00 | 0.00 | 42 | 1007.3 |
| 20260505164520 | 78 | 225 | 6.0 | 15.0 | 0.00 | 0.00 | 0.00 | 47 | 1007.7 |
| 20260505163733 | 78 | 225 | 8.0 | 14.0 | 0.00 | 0.00 | 0.00 | 44 | 1008.0 |
| 20260505162520 | 77 | 225 | 7.0 | 14.0 | 0.00 | 0.00 | 0.00 | 45 | 1008.0 |
| 20260505161520 | 77 | 225 | 6.0 | 14.0 | 0.00 | 0.00 | 0.00 | 46 | 1008.1 |
| 20260505160520 | 77 | 225 | 7.0 | 16.0 | 0.00 | 0.00 | 0.00 | 47 | 1008.2 |
| 20260505152520 | 75 | 225 | 7.0 | 17.0 | 0.00 | 0.00 | 0.00 | 49 | 1008.1 |
| 20260505151518 | 75 | 203 | 7.0 | 18.0 | 0.00 | 0.00 | 0.00 | 49 | 1008.4 |
| 20260505150520 | 75 | 225 | 6.0 | 13.0 | 0.00 | 0.00 | 0.00 | 50 | 1008.2 |
| 20260505140520 | 70 | 158 | 3.0 | 7.0 | 0.00 | 0.00 | 0.00 | 60 | 1008.7 |
| 20260505124520 | 65 | 158 | 3.0 | 7.0 | 0.00 | 0.00 | 0.00 | 62 | 1008.8 |
| 20260505123518 | 66 | 158 | 4.0 | 8.0 | 0.00 | 0.00 | 0.00 | 61 | 1009.0 |
| 20260505122520 | 66 | 113 | 1.0 | 2.0 | 0.00 | 0.00 | 0.00 | 61 | 1008.9 |
| 20260505121732 | 66 | 113 | 2.0 | 4.0 | 0.00 | 0.00 | 0.00 | 61 | 1008.9 |
| 20260505120519 | 65 | 113 | 3.0 | 5.0 | 0.00 | 0.00 | 0.00 | 61 | 1008.8 |
| 20260505115520 | 63 | 293 | 2.0 | 7.0 | 0.00 | 0.00 | 0.00 | 61 | 1008.7 |
| 20260505114520 | 62 | 0.0 | 2.0 | 0.00 | 0.00 | 0.00 | 60 | 1008.7 | |
| 20260505113518 | 63 | 293 | 1.0 | 4.0 | 0.00 | 0.00 | 0.00 | 61 | 1008.7 |
| 20260505112518 | 63 | 293 | 1.0 | 3.0 | 0.00 | 0.00 | 0.00 | 61 | 1008.7 |
| 20260505111520 | 64 | 293 | 1.0 | 2.0 | 0.00 | 0.00 | 0.00 | 58 | 1008.5 |
| 20260505110729 | 63 | 293 | 1.0 | 2.0 | 0.00 | 0.00 | 0.00 | 58 | 1008.3 |
| 20260505101728 | 56 | 90 | 3.0 | 6.0 | 0.00 | 0.00 | 0.00 | 23 | 1008.2 |
| 20260505100519 | 56 | 90 | 1.0 | 3.0 | 0.00 | 0.00 | 0.00 | 23 | 1007.8 |
| 20260505095520 | 57 | 90 | 1.0 | 2.0 | 0.00 | 0.00 | 0.00 | 40 | 1007.7 |
| 20260505094731 | 59 | 0.0 | 2.0 | 0.00 | 0.00 | 0.00 | 49 | 1007.8 | |
| 20260505093519 | 59 | 158 | 1.0 | 4.0 | 0.00 | 0.00 | 0.00 | 46 | 1007.6 |
| 20260505092519 | 58 | 158 | 1.0 | 3.0 | 0.00 | 0.00 | 0.00 | 44 | 1007.7 |
| 20260505091520 | 59 | 158 | 1.0 | 3.0 | 0.00 | 0.00 | 0.00 | 49 | 1007.8 |
| 20260505090730 | 59 | 0.0 | 2.0 | 0.00 | 0.00 | 0.00 | 49 | 1007.8 | |
| 20260505085518 | 59 | 180 | 2.0 | 4.0 | 0.00 | 0.00 | 0.00 | 46 | 1007.9 |
| 20260505084518 | 58 | 0.0 | 1.0 | 0.00 | 0.00 | 0.00 | 46 | 1007.9 | |
| 20260505083733 | 59 | 0.0 | 2.0 | 0.00 | 0.00 | 0.00 | 48 | 1007.7 | |
| 20260505082518 | 59 | 0.0 | 2.0 | 0.00 | 0.00 | 0.00 | 53 | 1007.6 | |
| 20260505081518 | 60 | 203 | 1.0 | 2.0 | 0.00 | 0.00 | 0.00 | 54 | 1007.7 |
| 20260505080519 | 60 | 203 | 1.0 | 3.0 | 0.00 | 0.00 | 0.00 | 54 | 1007.7 |
| 20260505075519 | 59 | 203 | 1.0 | 4.0 | 0.00 | 0.00 | 0.00 | 51 | 1007.5 |
| 20260505074519 | 59 | 0.0 | 1.0 | 0.00 | 0.00 | 0.00 | 53 | 1007.4 | |
| 20260505073520 | 60 | 0.0 | 0.0 | 0.00 | 0.00 | 0.00 | 57 | 1007.4 | |
| 20260505072519 | 61 | 0.0 | 1.0 | 0.00 | 0.00 | 0.00 | 60 | 1007.5 | |
| 20260505071730 | 62 | 203 | 2.0 | 5.0 | 0.00 | 0.00 | 0.00 | 60 | 1007.5 |
| 20260505070519 | 62 | 270 | 1.0 | 3.0 | 0.00 | 0.00 | 0.00 | 61 | 1007.4 |
| 20260505065519 | 62 | 0.0 | 2.0 | 0.00 | 0.00 | 0.00 | 61 | 1007.4 | |
| 20260505064519 | 62 | 0.0 | 0.0 | 0.00 | 0.00 | 0.00 | 62 | 1007.6 | |
| 20260505063519 | 63 | 0.0 | 0.0 | 0.00 | 0.00 | 0.00 | 61 | 1007.6 | |
| 20260505062730 | 63 | 270 | 2.0 | 4.0 | 0.00 | 0.00 | 0.00 | 61 | 1007.7 |
| 20260505061519 | 62 | 248 | 4.0 | 10.0 | 0.00 | 0.00 | 0.00 | 61 | 1007.7 |
| 20260505060732 | 62 | 0.0 | 2.0 | 0.00 | 0.00 | 0.00 | 61 | 1007.8 | |
| 20260505060159 | 62 | 0.0 | 1.0 | 0.00 | 0.00 | 0.00 | 61 | 1007.7 | |
| 20260505054519 | 63 | 180 | 1.0 | 3.0 | 0.00 | 0.00 | 0.00 | 61 | 1007.7 |
| 20260505053729 | 62 | 180 | 1.0 | 2.0 | 0.00 | 0.00 | 0.00 | 61 | 1007.7 |
| 20260505052519 | 61 | 0.0 | 2.0 | 0.00 | 0.00 | 0.00 | 61 | 1007.7 | |
| 20260505051519 | 61 | 180 | 1.0 | 4.0 | 0.00 | 0.00 | 0.00 | 61 | 1007.7 |
| 20260505050519 | 61 | 0.0 | 3.0 | 0.00 | 0.00 | 0.00 | 61 | 1007.7 | |
| 20260505041732 | 63 | 0.0 | 0.0 | 0.00 | 0.00 | 0.00 | 61 | 1007.5 | |
| 20260505040519 | 62 | 0.0 | 0.0 | 0.00 | 0.00 | 0.00 | 60 | 1007.5 | |
| 20260505035520 | 63 | 0.0 | 0.0 | 0.00 | 0.00 | 0.00 | 60 | 1007.3 | |
| 20260505034520 | 63 | 0.0 | 2.0 | 0.00 | 0.00 | 0.00 | 59 | 1007.2 | |
| 20260505033520 | 62 | 180 | 1.0 | 2.0 | 0.00 | 0.00 | 0.00 | 59 | 1007.3 |
| 20260505032520 | 63 | 0.0 | 0.0 | 0.00 | 0.00 | 0.00 | 58 | 1007.2 | |
| 20260505031520 | 63 | 0.0 | 1.0 | 0.00 | 0.00 | 0.00 | 58 | 1007.2 | |
| 20260505030520 | 63 | 0.0 | 2.0 | 0.00 | 0.00 | 0.00 | 57 | 1007.3 | |
| 20260505025520 | 64 | 0.0 | 1.0 | 0.00 | 0.00 | 0.00 | 55 | 1007.4 | |
| 20260505024519 | 66 | 180 | 1.0 | 3.0 | 0.00 | 0.00 | 0.00 | 54 | 1007.4 |
| 20260505023732 | 67 | 0.0 | 1.0 | 0.00 | 0.00 | 0.00 | 51 | 1007.4 | |
| 20260505022520 | 67 | 180 | 2.0 | 4.0 | 0.00 | 0.00 | 0.00 | 50 | 1007.3 |
| 20260505021520 | 67 | 180 | 2.0 | 5.0 | 0.00 | 0.00 | 0.00 | 50 | 1007.0 |
| 20260505020520 | 68 | 203 | 4.0 | 7.0 | 0.00 | 0.00 | 0.00 | 49 | 1007.1 |
| 20260505015520 | 68 | 203 | 4.0 | 7.0 | 0.00 | 0.00 | 0.00 | 48 | 1007.2 |
| 20260505014520 | 68 | 158 | 5.0 | 8.0 | 0.00 | 0.00 | 0.00 | 48 | 1007.1 |
| 20260505013520 | 68 | 203 | 4.0 | 7.0 | 0.00 | 0.00 | 0.00 | 49 | 1007.2 |
| 20260505012522 | 68 | 203 | 5.0 | 8.0 | 0.00 | 0.00 | 0.00 | 48 | 1007.1 |
| 20260505010521 | 69 | 203 | 3.0 | 7.0 | 0.00 | 0.00 | 0.00 | 47 | 1007.1 |
| 20260505005520 | 69 | 180 | 4.0 | 8.0 | 0.00 | 0.00 | 0.00 | 45 | 1007.1 |
| 20260505004520 | 70 | 203 | 4.0 | 7.0 | 0.00 | 0.00 | 0.00 | 45 | 1006.9 |
| 20260505003520 | 70 | 203 | 3.0 | 6.0 | 0.00 | 0.00 | 0.00 | 45 | 1006.8 |
| 20260505002521 | 70 | 225 | 4.0 | 6.0 | 0.00 | 0.00 | 0.00 | 44 | 1006.6 |
| 20260505001520 | 70 | 203 | 4.0 | 7.0 | 0.00 | 0.00 | 0.00 | 44 | 1006.5 |
| 20260505000520 | 70 | 203 | 5.0 | 12.0 | 0.00 | 0.00 | 0.00 | 43 | 1006.4 |
| 20260504235519 | 70 | 180 | 6.0 | 10.0 | 0.00 | 0.00 | 0.00 | 44 | 1006.3 |
| 20260504234520 | 71 | 203 | 6.0 | 13.0 | 0.00 | 0.00 | 0.00 | 43 | 1006.3 |
| 20260504233733 | 71 | 180 | 6.0 | 20.0 | 0.00 | 0.00 | 0.00 | 43 | 1006.2 |
| 20260504232519 | 71 | 180 | 6.0 | 15.0 | 0.00 | 0.00 | 0.00 | 42 | 1006.0 |
| 20260504231521 | 72 | 180 | 8.0 | 18.0 | 0.00 | 0.00 | 0.00 | 42 | 1006.0 |
| 20260504230521 | 72 | 203 | 9.0 | 20.0 | 0.00 | 0.00 | 0.00 | 42 | 1006.0 |
| 20260504225520 | 72 | 203 | 7.0 | 17.0 | 0.00 | 0.00 | 0.00 | 42 | 1006.0 |
| 20260504224518 | 73 | 180 | 8.0 | 17.0 | 0.00 | 0.00 | 0.00 | 42 | 1006.0 |
| 20260504223521 | 73 | 203 | 7.0 | 20.0 | 0.00 | 0.00 | 0.00 | 42 | 1006.0 |
| 20260504222520 | 73 | 158 | 6.0 | 10.0 | 0.00 | 0.00 | 0.00 | 42 | 1006.1 |
| 20260504221520 | 73 | 225 | 9.0 | 18.0 | 0.00 | 0.00 | 0.00 | 40 | 1006.2 |
| 20260504220732 | 73 | 158 | 7.0 | 15.0 | 0.00 | 0.00 | 0.00 | 41 | 1006.2 |
| 20260504215519 | 74 | 203 | 7.0 | 15.0 | 0.00 | 0.00 | 0.00 | 41 | 1006.1 |
| 20260504214521 | 74 | 203 | 6.0 | 14.0 | 0.00 | 0.00 | 0.00 | 39 | 1006.1 |
| 20260504213521 | 75 | 203 | 7.0 | 15.0 | 0.00 | 0.00 | 0.00 | 37 | 1006.2 |
| 20260504212944 | 75 | 203 | 6.0 | 13.0 | 0.00 | 0.00 | 0.00 | 38 | 1006.1 |
| 20260504211518 | 75 | 225 | 7.0 | 13.0 | 0.00 | 0.00 | 0.00 | 37 | 1006.2 |
| 20260504210520 | 75 | 203 | 6.0 | 12.0 | 0.00 | 0.00 | 0.00 | 37 | 1006.0 |
| 20260504205519 | 74 | 180 | 6.0 | 16.0 | 0.00 | 0.00 | 0.00 | 36 | 1006.1 |
| 20260504204519 | 75 | 225 | 6.0 | 12.0 | 0.00 | 0.00 | 0.00 | 37 | 1006.3 |
| 20260504203520 | 75 | 225 | 6.0 | 11.0 | 0.00 | 0.00 | 0.00 | 38 | 1006.3 |
| 20260504202731 | 74 | 180 | 7.0 | 14.0 | 0.00 | 0.00 | 0.00 | 37 | 1006.6 |
| 20260504201519 | 74 | 203 | 5.0 | 11.0 | 0.00 | 0.00 | 0.00 | 38 | 1006.6 |
| 20260504200519 | 74 | 203 | 7.0 | 13.0 | 0.00 | 0.00 | 0.00 | 38 | 1006.9 |
| 20260504195734 | 74 | 225 | 4.0 | 10.0 | 0.00 | 0.00 | 0.00 | 39 | 1007.0 |
| 20260504194518 | 74 | 225 | 7.0 | 12.0 | 0.00 | 0.00 | 0.00 | 38 | 1007.3 |
| 20260504193731 | 73 | 270 | 7.0 | 13.0 | 0.00 | 0.00 | 0.00 | 39 | 1007.4 |
| 20260504192519 | 73 | 270 | 6.0 | 14.0 | 0.00 | 0.00 | 0.00 | 40 | 1007.6 |
| 20260504191733 | 73 | 248 | 7.0 | 15.0 | 0.00 | 0.00 | 0.00 | 39 | 1007.7 |
| 20260504190518 | 72 | 225 | 7.0 | 13.0 | 0.00 | 0.00 | 0.00 | 38 | 1007.9 |
| 20260504185518 | 72 | 203 | 7.0 | 15.0 | 0.00 | 0.00 | 0.00 | 39 | 1007.9 |
| 20260504184521 | 72 | 225 | 6.0 | 12.0 | 0.00 | 0.00 | 0.00 | 40 | 1008.2 |
| 20260504183945 | 72 | 225 | 7.0 | 13.0 | 0.00 | 0.00 | 0.00 | 41 | 1008.4 |
| 20260504182519 | 71 | 225 | 6.0 | 14.0 | 0.00 | 0.01 | 0.00 | 42 | 1008.5 |
| 20260504181521 | 71 | 203 | 6.0 | 13.0 | 0.00 | 0.01 | 0.00 | 43 | 1008.7 |
| 20260504180729 | 70 | 203 | 9.0 | 19.0 | 0.00 | 0.01 | 0.00 | 42 | 1008.7 |
| 20260504175519 | 70 | 203 | 7.0 | 13.0 | 0.00 | 0.01 | 0.00 | 43 | 1008.9 |
| 20260504174731 | 70 | 203 | 6.0 | 10.0 | 0.00 | 0.01 | 0.00 | 42 | 1009.0 |
| 20260504173519 | 69 | 180 | 7.0 | 16.0 | 0.00 | 0.01 | 0.00 | 43 | 1009.1 |
| 20260504172519 | 69 | 248 | 7.0 | 16.0 | 0.00 | 0.01 | 0.00 | 44 | 1009.3 |
| 20260504171729 | 69 | 203 | 6.0 | 14.0 | 0.00 | 0.01 | 0.00 | 44 | 1009.3 |